Location: Blankensee
(53.5126°N, 14.3055°E)
Time: 17:45:23
(UTC+00:00)

Cosmos 1627 Rocket - Pass Details

Date: 08 August 2020
Orbit: 951 x 1003 km, 82.9° (Epoch: 20 September)

Event Time Altitude Azimuth Distance (km) Brightness Sun altitude
Rises 00:22:05 0° 348° (NNW) 3,642 8.5 -18.7°
Reaches altitude 10° 00:24:35 10° 348° (NNW) 2,695 7.7 -18.5°
Maximum altitude 00:30:45 83° 262° (W) 975 4.4 -18.2°
Enters shadow 00:34:28 26° 177° (S) 1,804 5.4 -18.0°
